Time,TemperatureF,DewpointF,PressureIn,WindDirection,WindDirectionDegrees,WindSpeedMPH,WindSpeedGustMPH,Humidity,HourlyPrecipIn,Conditions,Clouds,dailyrainin,SoftwareType,DateUTC
2013-01-20 00:14:00,36.3,35.0,30.19,SW,217,0.0,0.0,94,0.00,,,0.00,weatherlink.com 1.10,2013-01-20 08:14:00,
2013-01-20 00:29:00,36.8,35.0,30.20,NNW,345,1.0,1.0,94,0.00,,,0.00,weatherlink.com 1.10,2013-01-20 08:29:00,
2013-01-20 00:44:00,36.8,35.0,30.20,NNW,345,0.0,0.0,94,0.00,,,0.00,weatherlink.com 1.10,2013-01-20 08:44:00,
2013-01-20 00:59:00,35.5,34.0,30.20,WNW,302,2.0,3.0,93,0.00,,,0.00,weatherlink.com 1.10,2013-01-20 08:59:00,
2013-01-20 01:14:00,35.5,34.0,30.20,WNW,302,0.0,2.0,94,0.00,,,0.00,weatherlink.com 1.10,2013-01-20 09:14:00,
2013-01-20 01:29:00,36.1,35.0,30.20,WNW,302,0.0,0.0,95,0.00,,,0.00,weatherlink.com 1.10,2013-01-20 09:29:00,
2013-01-20 01:44:00,36.2,35.0,30.20,WNW,302,0.0,0.0,95,0.00,,,0.00,weatherlink.com 1.10,2013-01-20 09:44:00,
2013-01-20 01:59:00,35.6,34.0,30.20,WNW,302,0.0,0.0,94,0.00,,,0.00,weatherlink.com 1.10,2013-01-20 09:59:00,
2013-01-20 02:14:00,35.2,34.0,30.20,WNW,302,0.0,1.0,94,0.00,,,0.00,weatherlink.com 1.10,2013-01-20 10:14:00,
2013-01-20 02:29:00,35.7,34.0,30.21,WNW,302,0.0,1.0,95,0.00,,,0.00,weatherlink.com 1.10,2013-01-20 10:29:00,
2013-01-20 02:44:00,35.8,34.0,30.21,WNW,302,0.0,0.0,94,0.00,,,0.00,weatherlink.com 1.10,2013-01-20 10:44:00,
2013-01-20 02:59:00,35.4,34.0,30.21,WNW,303,0.0,1.0,94,0.00,,,0.00,weatherlink.com 1.10,2013-01-20 10:59:00,
2013-01-20 03:14:00,36.0,34.0,30.21,NNE,15,0.0,4.0,92,0.00,,,0.00,weatherlink.com 1.10,2013-01-20 11:14:00,
2013-01-20 03:29:00,35.9,34.0,30.20,NNE,26,0.0,2.0,91,0.01,,,0.01,weatherlink.com 1.10,2013-01-20 11:29:00,
2013-01-20 03:44:00,35.8,34.0,30.20,NNE,17,1.0,2.0,91,0.01,,,0.01,weatherlink.com 1.10,2013-01-20 11:44:00,
2013-01-20 03:59:00,36.7,34.0,30.20,NE,38,0.0,4.0,89,0.01,,,0.01,weatherlink.com 1.10,2013-01-20 11:59:00,
2013-01-20 04:14:00,36.8,34.0,30.20,NE,50,0.0,2.0,88,0.01,,,0.01,weatherlink.com 1.10,2013-01-20 12:14:00,
2013-01-20 04:29:00,36.2,33.0,30.20,NE,51,0.0,2.0,89,0.00,,,0.01,weatherlink.com 1.10,2013-01-20 12:29:00,
2013-01-20 04:44:00,35.2,33.0,30.20,NE,46,0.0,0.0,90,0.00,,,0.01,weatherlink.com 1.10,2013-01-20 12:44:00,
2013-01-20 05:00:00,34.5,32.0,30.19,NNW,342,0.0,2.0,91,0.00,,,0.01,weatherlink.com 1.10,2013-01-20 13:00:00,
2013-01-20 05:15:00,34.4,33.0,30.19,NNW,330,0.0,1.0,93,0.00,,,0.01,weatherlink.com 1.10,2013-01-20 13:15:00,
2013-01-20 05:30:00,34.2,32.0,30.19,NNW,330,0.0,0.0,93,0.00,,,0.01,weatherlink.com 1.10,2013-01-20 13:30:00,
2013-01-20 05:45:00,33.9,32.0,30.19,NNW,330,0.0,0.0,93,0.00,,,0.01,weatherlink.com 1.10,2013-01-20 13:45:00,
2013-01-20 06:00:00,34.2,32.0,30.19,North,10,1.0,4.0,92,0.00,,,0.01,weatherlink.com 1.10,2013-01-20 14:00:00,
2013-01-20 06:14:00,33.9,31.0,30.19,NNE,12,0.0,0.0,90,0.00,,,0.01,weatherlink.com 1.10,2013-01-20 14:14:00,
2013-01-20 06:30:00,32.1,30.0,30.19,NNW,343,1.0,2.0,92,0.00,,,0.01,weatherlink.com 1.10,2013-01-20 14:30:00,
2013-01-20 06:45:00,32.4,31.0,30.19,North,5,0.0,2.0,93,0.00,,,0.01,weatherlink.com 1.10,2013-01-20 14:45:00,
2013-01-20 07:00:00,33.0,32.0,30.19,North,5,0.0,0.0,94,0.00,,,0.01,weatherlink.com 1.10,2013-01-20 15:00:00,
2013-01-20 07:15:00,32.8,31.0,30.19,North,5,0.0,1.0,93,0.00,,,0.01,weatherlink.com 1.10,2013-01-20 15:15:00,
2013-01-20 07:30:00,32.0,30.0,30.19,NNW,346,0.0,1.0,93,0.00,,,0.01,weatherlink.com 1.10,2013-01-20 15:30:00,
2013-01-20 07:45:00,32.1,31.0,30.19,NNW,346,0.0,0.0,94,0.00,,,0.01,weatherlink.com 1.10,2013-01-20 15:45:00,
2013-01-20 08:00:00,33.3,32.0,30.20,NE,54,0.0,2.0,94,0.00,,,0.01,weatherlink.com 1.10,2013-01-20 16:00:00,
2013-01-20 08:15:00,33.5,31.0,30.20,NNW,337,0.0,1.0,91,0.00,,,0.01,weatherlink.com 1.10,2013-01-20 16:15:00,
2013-01-20 08:30:00,31.9,30.0,30.20,NNW,337,1.0,2.0,92,0.00,,,0.01,weatherlink.com 1.10,2013-01-20 16:30:00,
2013-01-20 08:45:00,33.9,32.0,30.20,NNE,17,2.0,3.0,93,0.00,,,0.01,weatherlink.com 1.10,2013-01-20 16:45:00,
2013-01-20 09:00:00,36.0,34.0,30.20,North,5,0.0,2.0,91,0.00,,,0.01,weatherlink.com 1.10,2013-01-20 17:00:00,
2013-01-20 09:15:00,36.9,35.0,30.21,North,6,0.0,1.0,91,0.00,,,0.01,weatherlink.com 1.10,2013-01-20 17:15:00,
2013-01-20 09:30:00,37.3,35.0,30.21,East,99,1.0,3.0,91,0.00,,,0.01,weatherlink.com 1.10,2013-01-20 17:30:00,
2013-01-20 09:45:00,40.1,36.0,30.21,ESE,116,0.0,4.0,84,0.00,,,0.01,weatherlink.com 1.10,2013-01-20 17:45:00,
2013-01-20 10:00:00,43.3,37.0,30.21,East,84,0.0,3.0,78,0.00,,,0.01,weatherlink.com 1.10,2013-01-20 18:00:00,
2013-01-20 10:15:00,46.1,37.0,30.21,East,82,0.0,2.0,71,0.00,,,0.01,weatherlink.com 1.10,2013-01-20 18:15:00,
2013-01-20 10:30:00,48.7,39.0,30.20,ENE,67,0.0,3.0,69,0.00,,,0.01,weatherlink.com 1.10,2013-01-20 18:30:00,
2013-01-20 10:45:00,49.9,38.0,30.20,ENE,75,1.0,3.0,64,0.00,,,0.01,weatherlink.com 1.10,2013-01-20 18:45:00,
2013-01-20 11:00:00,51.0,37.0,30.19,ESE,120,0.0,2.0,59,0.00,,,0.01,weatherlink.com 1.10,2013-01-20 19:00:00,
2013-01-20 11:15:00,52.8,37.0,30.19,NNW,346,0.0,4.0,56,0.00,,,0.01,weatherlink.com 1.10,2013-01-20 19:15:00,
2013-01-20 11:30:00,53.6,37.0,30.18,ENE,69,0.0,3.0,53,0.00,,,0.01,weatherlink.com 1.10,2013-01-20 19:30:00,
2013-01-20 11:45:00,54.9,37.0,30.17,ENE,77,1.0,3.0,52,0.00,,,0.01,weatherlink.com 1.10,2013-01-20 19:45:00,
2013-01-20 12:00:00,55.6,37.0,30.16,ESE,109,0.0,4.0,50,0.00,,,0.01,weatherlink.com 1.10,2013-01-20 20:00:00,
2013-01-20 12:15:00,56.6,38.0,30.15,SSE,168,2.0,3.0,51,0.00,,,0.01,weatherlink.com 1.10,2013-01-20 20:15:00,
2013-01-20 12:31:00,57.8,38.0,30.14,ESE,119,0.0,2.0,48,0.00,,,0.01,weatherlink.com 1.10,2013-01-20 20:31:00,
2013-01-20 12:46:00,59.9,38.0,30.13,East,99,0.0,2.0,45,0.00,,,0.01,weatherlink.com 1.10,2013-01-20 20:46:00,
2013-01-20 13:01:00,61.7,40.0,30.12,East,99,0.0,2.0,45,0.00,,,0.01,weatherlink.com 1.10,2013-01-20 21:01:00,
2013-01-20 13:16:00,61.6,40.0,30.12,ENE,75,0.0,3.0,45,0.00,,,0.01,weatherlink.com 1.10,2013-01-20 21:16:00,
2013-01-20 13:31:00,61.9,40.0,30.11,SSW,197,0.0,3.0,45,0.00,,,0.01,weatherlink.com 1.10,2013-01-20 21:31:00,
2013-01-20 13:46:00,61.9,40.0,30.11,SW,236,0.0,4.0,45,0.00,,,0.01,weatherlink.com 1.10,2013-01-20 21:46:00,
2013-01-20 14:01:00,62.1,40.0,30.10,South,169,0.0,3.0,45,0.00,,,0.01,weatherlink.com 1.10,2013-01-20 22:01:00,
2013-01-20 14:16:00,62.1,40.0,30.10,SSE,163,0.0,2.0,44,0.00,,,0.01,weatherlink.com 1.10,2013-01-20 22:16:00,
2013-01-20 14:31:00,62.6,40.0,30.09,South,176,0.0,1.0,43,0.00,,,0.01,weatherlink.com 1.10,2013-01-20 22:31:00,
2013-01-20 14:46:00,62.6,40.0,30.09,SW,222,0.0,3.0,44,0.00,,,0.01,weatherlink.com 1.10,2013-01-20 22:46:00,
2013-01-20 15:01:00,63.2,41.0,30.10,SSW,212,0.0,2.0,44,0.00,,,0.01,weatherlink.com 1.10,2013-01-20 23:01:00,
2013-01-20 15:16:00,63.4,43.0,30.10,SSW,206,1.0,3.0,48,0.00,,,0.01,weatherlink.com 1.10,2013-01-20 23:16:00,
2013-01-20 15:46:00,63.2,42.0,30.11,South,179,0.0,2.0,46,0.00,,,0.01,weatherlink.com 1.10,2013-01-20 23:46:00,
2013-01-20 16:16:00,62.4,40.0,30.11,SSE,165,0.0,2.0,44,0.00,,,0.01,weatherlink.com 1.10,2013-01-21 00:16:00,
2013-01-20 16:46:00,61.4,40.0,30.12,SSE,159,0.0,0.0,46,0.00,,,0.01,weatherlink.com 1.10,2013-01-21 00:46:00,
2013-01-20 17:16:00,59.6,39.0,30.11,SSE,159,0.0,0.0,47,0.00,,,0.01,weatherlink.com 1.10,2013-01-21 01:16:00,
2013-01-20 17:46:00,55.4,38.0,30.11,SSE,159,0.0,0.0,53,0.00,,,0.01,weatherlink.com 1.10,2013-01-21 01:46:00,
2013-01-20 18:01:00,53.1,41.0,30.11,WNW,292,0.0,3.0,63,0.00,,,0.01,weatherlink.com 1.10,2013-01-21 02:01:00,
2013-01-20 18:16:00,50.5,41.0,30.12,WNW,291,0.0,3.0,70,0.00,,,0.01,weatherlink.com 1.10,2013-01-21 02:16:00,
2013-01-20 18:46:00,48.6,40.0,30.13,WNW,300,0.0,4.0,72,0.00,,,0.01,weatherlink.com 1.10,2013-01-21 02:46:00,
2013-01-20 19:16:00,46.7,40.0,30.13,WNW,288,0.0,1.0,77,0.00,,,0.01,weatherlink.com 1.10,2013-01-21 03:16:00,
2013-01-20 19:46:00,44.5,39.0,30.14,WNW,288,0.0,3.0,81,0.00,,,0.01,weatherlink.com 1.10,2013-01-21 03:46:00,
2013-01-20 20:01:00,42.8,38.0,30.14,WNW,288,0.0,0.0,84,0.00,,,0.01,weatherlink.com 1.10,2013-01-21 04:01:00,
2013-01-20 20:16:00,43.1,39.0,30.14,WNW,288,0.0,1.0,84,0.00,,,0.01,weatherlink.com 1.10,2013-01-21 04:16:00,
2013-01-20 20:31:00,41.9,38.0,30.14,WNW,288,0.0,0.0,85,0.00,,,0.01,weatherlink.com 1.10,2013-01-21 04:31:00,
2013-01-20 22:01:00,39.6,37.0,30.15,NW,306,0.0,1.0,91,0.00,,,0.01,weatherlink.com 1.10,2013-01-21 06:01:00,
2013-01-20 22:16:00,40.7,38.0,30.15,NW,306,0.0,0.0,91,0.00,,,0.01,weatherlink.com 1.10,2013-01-21 06:16:00,
2013-01-20 22:46:00,38.9,37.0,30.16,WNW,288,0.0,0.0,92,0.00,,,0.01,weatherlink.com 1.10,2013-01-21 06:46:00,
2013-01-20 23:01:00,39.8,37.0,30.16,WNW,288,0.0,1.0,90,0.00,,,0.01,weatherlink.com 1.10,2013-01-21 07:01:00,
2013-01-20 23:16:00,37.9,35.0,30.15,WNW,302,0.0,4.0,90,0.00,,,0.01,weatherlink.com 1.10,2013-01-21 07:16:00,
2013-01-20 23:31:00,37.8,36.0,30.15,WNW,302,0.0,0.0,93,0.00,,,0.01,weatherlink.com 1.10,2013-01-21 07:31:00,
2013-01-20 23:46:00,37.2,35.0,30.15,WNW,302,0.0,2.0,92,0.00,,,0.01,weatherlink.com 1.10,2013-01-21 07:46:00,